Regional Weather Roundup
Issued by NWS Wakefield, VA

Home | Current Version | Previous Version | Text Only | Print | Product List | Glossary On
Versions: 1 2 3 4 5 6 7 8 9 10 11 12 13 14 15 16 17 18 19 20 21 22 23 24 25 26 27 28 29 30 31 32 33 34 35 36 37 38 39 40 41 42 43 44 45 46 47 48 49
000
ASUS41 KAKQ 100215
RWRAKQ

REGIONAL WEATHER ROUNDUP
NATIONAL WEATHER SERVICE WAKEFIELD VA
900 PM EST TUE FEB 09 2016

Note: "fair" indicates few or no clouds below 12,000 feet with no
significant weather and/or obstructions to visibility. * = Denotes
station may not report precipitation (e.g., rain,snow,etc.),
thunder or fog.

VAZ042-051-052>054-056-100300-
NORTHERN VIRGINIA

CITY           SKY/WX    TMP DP  RH WIND       PRES   REMARKS
WASH NATIONAL  MOCLDY    35  22  58 W9        29.68R
DULLES         MOCLDY    31  18  58 NW13G23   29.67R WCI  21
FORT BELVOIR   FAIR      34  19  55 NW9       29.69R
QUANTICO       CLOUDY    36  28  73 NW6       29.71R
FREDERICKSBRG* FLURRIES  33  33 100 CALM      29.69S
STAFFORD*      CLOUDY    33  30  86 NW3       29.73R
WARRENTON      CLOUDY    34  26  71 NW7       29.67S
CULPEPER*      CLOUDY    33  22  63 CALM      29.68S
MANASSAS*      CLOUDY    34  21  60 NW12      29.68R
LEESBURG*      CLOUDY    32  25  74 NW18G25   29.68S WCI  20
WINCHESTER     CLOUDY    32  19  59 W13G20    29.68R WCI  22
FRONT ROYAL*   CLOUDY    32  18  55 W3        29.67S
LURAY*         CLOUDY    30  18  59 NW6       29.69R
$$

VAZ048-049-060>072-079>083-100300-
CENTRAL AND SOUTH CENTRAL VIRGINIA

CITY           SKY/WX    TMP DP  RH WIND       PRES   REMARKS
RICHMOND       FAIR      34  18  52 W14       29.70R WCI  25
CHESTERFIELD*  FAIR      34   9  35 W9G16     29.72R
PETERSBURG*    FAIR      33  13  44 SW7       29.73R
HANOVER        CLOUDY    36  18  48 SW10G18   29.70R
TAPPAHANNOCK*  CLOUDY    34  34 100 N3        29.70R
QUINTON*       FAIR      36  18  49 W7        29.70R
CHARLOTTSVILLE CLOUDY    33  15  47 W3        29.68R
GORDONSVILLE*  CLOUDY    34  18  50 W7        29.67R
ORANGE*        CLOUDY    34  32  93 N3        29.69R
LOUISA*        CLOUDY    36  18  48 W6        29.66S
BUMPASS*       CLOUDY    35  18  49 W7        29.67R
FARMVILLE*     FAIR      32  14  48 SW6       29.71R
CREWE*         FAIR      32  17  54 W6        29.72R
FORT PICKETT*  FAIR      31  16  53 W8        29.72S
CHASE CITY*    FAIR      32  12  43 W7G17     29.75R
CLARKSVILLE*   CLOUDY    32  16  51 W9        29.76R
SOUTH HILL*    CLOUDY    34  16  47 W10G16    29.79S
LAWRENCEVILLE* CLOUDY    35  17  49 W5        29.73R
EMPORIA*       CLOUDY    36  18  48 SW9       29.76R
$$

VAZ088>098-100300-
SOUTHEAST VIRGINIA

CITY           SKY/WX    TMP DP  RH WIND       PRES   REMARKS
NORFOLK        CLOUDY    42  19  39 W13G21    29.70R
VIRGINIA BEACH CLOUDY    44  22  41 W15       29.69R
NORFOLK NAVAL  CLOUDY    41  20  43 W18G24    29.72R
WEST POINT*    CLOUDY    36  25  64 SW10      29.71R
SALUDA*        MOCLDY    35  34  95 NW3       29.69R
NEWPORT NEWS   CLOUDY    39  20  46 W14       29.70R
LANGLEY AFB    CLOUDY    40  20  45 W17G28    29.69R
FORT EUSTIS    CLOUDY    39  18  42 W8G17     29.69R
WILLIAMSBURG*  MOCLDY    39  21  48 W13G22    29.71R
HR EXEC AP*    CLOUDY    39  21  48 W10G20    29.73R
FRANKLIN*      CLOUDY    38  19  48 W10       29.74R
US460-WAKEFLD  CLOUDY    37  16  42 W10G20    29.72R
$$

VAZ020-022-025-037-045-100300-
WEST CENTRAL AND SOUTHWEST VIRGINIA

CITY           SKY/WX    TMP DP  RH WIND       PRES   REMARKS
STAUNTON*      CLOUDY    32  14  47 W8        29.71R
WAYNESBORO*    CLOUDY    27  11  52 W6        29.68S
HOT SPRINGS VA LGT SNOW  14  14 100 W22       29.55R WCI  -4
LYNCHBURG      FAIR      26  12  55 VRB6G18   29.74R
DANVILLE       FAIR      30  12  47 NW10      29.79R WCI  21
SOUTH BOSTON*  CLOUDY    32  12  43 W16G24    29.77R WCI  21
MARTINSVILLE   CLOUDY    26   9  48 NW12      29.82R WCI  15
ROANOKE        MOCLDY    25   9  50 NW21G28   29.79R WCI  11
BLACKSBURG     CLOUDY    21  13  71 W14G23    29.76R WCI   8
DUBLIN*        FLURRIES  22  13  68 W14G24    29.77R WCI   9
MARION*        FLURRIES  19  13  76 W18G24    29.76F WCI   4
HILLSVILLE*    CLOUDY    18  12  78 NW18G25   29.70S WCI   2
RICHLANDS*     LGT SNOW  17  12  79 W9        29.77S
WISE*          FLURRIES  19   9  63 W10       29.80R WCI   8
ABINGDON*      CLOUDY    22  12  65 W9        29.83S
$$

MDZ021>025-VAZ099-100-100300-
SOUTHERN MARYLAND AND THE DELMARVA PENINSULA

CITY           SKY/WX    TMP DP  RH WIND       PRES   REMARKS
PATUXENT RIVER CLOUDY    36  33  89 W8        29.67R
BAY BRIDGE APT   N/A     34  28  80 W7G16     29.66R
LEONARDTOWN    CLOUDY    34  32  93 W3        29.68S
DOVER          CLOUDY    34  34 100 W9        29.61S
GEORGETOWN     CLOUDY    35  34  96 W3        29.64R
EASTON         MOCLDY    36  30  80 NW7       29.68R
CAMBRIDGE      CLOUDY    34  30  86 W3        29.65S
SALISBURY      CLOUDY    36  32  85 W7        29.64R
OCEAN CITY     CLOUDY    36  34  92 W6        29.63S
WALLOPS ISLAND CLOUDY    36  34  92 SW9       29.66R
ACCOMACK*      CLOUDY    36  34  93 NW8       29.66S
$$

NCZ012>017-030>032-100300-
NORTH CENTRAL AND EASTERN NORTH CAROLINA

CITY           SKY/WX    TMP DP  RH WIND       PRES   REMARKS
ROANOKE RAPIDS CLOUDY    36  21  55 W9        29.75R
RALEIGH        MOCLDY    34  10  37 W8G16     29.80R
ELIZABETH CITY CLOUDY    38  32  79 SW9       29.73R
AHOSKIE*       CLOUDY    37  22  54 CALM      29.76R
EDENTON*       CLOUDY    41  29  62 W14G22    29.76R
CURRITUCK*     CLOUDY    40  32  73 SW10      29.73R
KILL DEVIL HLS CLOUDY    40  32  72 W10G24    29.72R
MANTEO         CLOUDY    40  34  79 W8        29.74R
CAPE HATTERAS  MOCLDY    44  27  51 W16G31    29.75R
TARBORO*       CLOUDY    38  24  55 W10       29.79R
GOLDSBORO      CLOUDY    39  21  48 W13       29.78R
WASHINGTON     CLOUDY    39  22  50 W12G21    29.77R
GREENVILLE     CLOUDY    39  23  52 NW10G24   29.81R
NEW BERN       CLOUDY    41  22  46 W13       29.80R
WILMINGTON     PTCLDY    40  24  53 W13       29.83R
$$

VAZ048-100300-
ELSEWHERE

CITY           SKY/WX    TMP DP  RH WIND       PRES   REMARKS
HARRISBURG PA  LGT SNOW  32  29  88 W9        29.62S FOG
BALTIMORE      CLOUDY    33  25  72 W10       29.65R WCI  25
ANNAPOLIS      CLOUDY    34  27  75 NW9       29.66R
ANDREWS AFB    CLOUDY    34  24  67 NW10      29.66R
PHILADELPHIA   LGT SNOW  34  31  88 CALM      29.62F FOG
HENDERSON NC   CLOUDY    33  13  43 W6        29.77R
GREENSBORO     PTCLDY    27  10  49 W10       29.80R WCI  17
ROCKY MOUNT    CLOUDY    37  23  56 W6        29.78R
$$

VAZ100-100300-
MARINE

STATION/POSITION TIME  TEMP    WIND        PRES    WAVE   SWELL
                       AIR SEA DIR/SP/G            HT/PER HT/PER
                 (UTC) (F)     (DEG/KT/KT) (MB)    (FT/S) (FT/S)
BRANDYWINE LGT   0100   36     250/ 10/ 12 1002.8R
CAPE MAY NJ      0100   38 43  290/  2/  2 1002.2R
LEWES DE         0100   37 41  290/  8/ 10 1002.8R
15NM E FENWICK I 0150   38 43              1002.3S   6/14
OCEAN-CITY-INLET 0100   37 41  310/  6/  8 1002.4R
WACHAPREAGUE VA  0100   36 43  270/  3/  4 1004.3R
GOOSES REEF MD   0200   37 40  310/ 12/ 14 1005.9R   1/ 3
COVE POINT MD    0100   36     320/  9/ 11 1004.9R
SOLOMONS ISLAND  0100   37 41  260/  7/  9   N/A
BISHOPS HEAD MD  0100   39 42  280/ 12/ 15 1003.0R
PINEY POINT MD   0100          290/  9/ 10   N/A
POTOMAC MD       0200   35 41  300/ 12/ 16 1004.0R   1/ 2
CAMBRIDGE MD     0100   37 40  280/  6/ 11 1003.1R
LEWISETTA VA     0100   34 41  310/  8/  9 1004.5R
RAPPAHANNOCK LGT 0100          290/ 11/ 12 1004.6R
STINGRAY PT      0200   37 42  310/  8/ 10 1004.9R   1
YORK RVR RNG VA  0100   40     310/  7/  8 1004.0R
YORKTOWN VA      0100   40 43  270/  8/ 12 1004.4R
JAMESTOWN VA     0200   38 44  260/ 12/ 16   N/A
DOMINION TERM VA 0100   42     290/ 12/ 14 1004.7R
KIPTOPEKE VA     0100      44  330/ 11/ 12   N/A
CHES BAY BRIDGE  0100   43 44  240/ 19/ 22 1004.1R
CAPE HENRY VA    0100   43     260/ 12/ 16   N/A
CHESAPEAKE LGHT  0100   42     300/  7/  8 1005.2R
WILLOUBY STN VA  0100   42     280/ 20/ 23   N/A
CAPE HENRY BUOY  0128      45                N/A     5/14   3/14
1ST LANDING BUOY 0200      43                N/A     3/ 5
CAPE CHARLES BUO 0126      44                N/A     5/13   5/13
OFFSHORE WE BUOY 0121      46                N/A     6/15   7/15
64NM E OF VA BCH 0150   44 50  280/ 21/ 27 1004.2R  10/15   8/15
DUCK PIER NC     0100   42     280/ 16/ 21 1005.4R
44100 DUCK FRF   0124      47                N/A     7/13   7/13
44056 DUCK FRF   0111      45                N/A     6/15   5/15
OREGON INLET NC  0100   42 46  270/ 11/ 15 1006.2R
HATTERAS NC      0100   45 52  260/ 21/ 29 1006.4R
DIAMOND SHLS NC  0150   48 73  280/ 25/ 33 1006.7R  10/15   7/15
$$



USA.gov is the U.S. government's official web portal to all federal, state and local government web resources and services.